Time,TemperatureF,DewpointF,PressureIn,WindDirection,WindDirectionDegrees,WindSpeedMPH,WindSpeedGustMPH,Humidity,HourlyPrecipIn,Conditions,Clouds,dailyrainin,SoftwareType,DateUTC
2013-02-27 00:02:00,29.0,26.0,29.69,NNE,32,16.0,18.0,90,0.01,,,0.06,,2013-02-27 06:02:00,
2013-02-27 00:11:00,29.0,26.0,29.69,NNE,32,16.0,18.0,90,0.01,,,0.06,,2013-02-27 06:11:00,
2013-02-27 00:21:00,29.0,26.0,29.69,North,351,12.0,19.0,90,0.00,,,0.06,,2013-02-27 06:21:00,
2013-02-27 00:32:00,29.0,26.0,29.69,NNE,32,9.0,21.0,90,0.00,,,0.06,,2013-02-27 06:32:00,
2013-02-27 00:41:00,29.0,26.0,29.69,NNE,32,9.0,21.0,90,0.00,,,0.06,,2013-02-27 06:41:00,
2013-02-27 00:51:00,29.0,27.0,29.69,NNW,342,6.0,17.0,91,0.00,,,0.06,,2013-02-27 06:51:00,
2013-02-27 01:01:00,29.0,27.0,29.69,NNE,26,16.0,18.0,91,0.00,,,0.06,,2013-02-27 07:01:00,
2013-02-27 01:12:00,29.0,27.0,29.69,NNE,26,16.0,18.0,91,0.00,,,0.06,,2013-02-27 07:12:00,
2013-02-27 01:21:00,29.0,27.0,29.69,NNE,32,14.0,17.0,91,0.00,,,0.06,,2013-02-27 07:21:00,
2013-02-27 01:31:00,29.0,26.0,29.69,North,355,5.0,20.0,90,0.00,,,0.06,,2013-02-27 07:31:00,
2013-02-27 01:42:00,29.0,26.0,29.69,North,355,5.0,20.0,90,0.00,,,0.06,,2013-02-27 07:42:00,
2013-02-27 01:51:00,29.0,26.0,29.69,NNE,18,13.0,17.0,90,0.00,,,0.06,,2013-02-27 07:51:00,
2013-02-27 02:01:00,28.0,26.0,29.69,NNW,343,4.0,16.0,91,0.00,,,0.06,,2013-02-27 08:01:00,
2013-02-27 02:11:00,28.0,26.0,29.69,NNW,343,4.0,16.0,91,0.00,,,0.06,,2013-02-27 08:11:00,
2013-02-27 02:21:00,29.0,27.0,29.69,NNE,17,6.0,15.0,91,0.01,,,0.07,,2013-02-27 08:21:00,
2013-02-27 02:32:00,29.0,26.0,29.68,NNE,27,6.0,16.0,90,0.01,,,0.07,,2013-02-27 08:32:00,
2013-02-27 02:41:00,29.0,26.0,29.68,NNE,27,6.0,16.0,90,0.01,,,0.07,,2013-02-27 08:41:00,
2013-02-27 02:53:00,29.0,26.0,29.68,North,5,10.0,16.0,90,0.01,,,0.07,,2013-02-27 08:53:00,
2013-02-27 03:01:00,28.0,25.0,29.67,North,355,7.0,17.0,90,0.01,,,0.07,,2013-02-27 09:01:00,
2013-02-27 03:12:00,28.0,25.0,29.67,North,355,7.0,17.0,90,0.01,,,0.07,,2013-02-27 09:12:00,
2013-02-27 03:21:00,28.0,25.0,29.67,North,5,16.0,16.0,90,0.00,,,0.07,,2013-02-27 09:21:00,
2013-02-27 03:32:00,28.0,25.0,29.67,North,9,15.0,23.0,90,0.00,,,0.07,,2013-02-27 09:32:00,
2013-02-27 03:41:00,28.0,25.0,29.67,North,9,15.0,23.0,90,0.00,,,0.07,,2013-02-27 09:41:00,
2013-02-27 03:51:00,28.0,25.0,29.67,NNE,33,7.0,16.0,90,0.00,,,0.07,,2013-02-27 09:51:00,
2013-02-27 04:01:00,28.0,25.0,29.67,NNE,13,5.0,19.0,90,0.00,,,0.07,,2013-02-27 10:01:00,
2013-02-27 04:12:00,28.0,25.0,29.67,NNE,13,5.0,19.0,90,0.00,,,0.07,,2013-02-27 10:12:00,
2013-02-27 04:21:00,28.0,25.0,29.67,NNE,12,15.0,20.0,90,0.00,,,0.07,,2013-02-27 10:21:00,
2013-02-27 04:32:00,28.0,25.0,29.67,NW,319,12.0,17.0,90,0.00,,,0.07,,2013-02-27 10:32:00,
2013-02-27 04:42:00,28.0,25.0,29.67,NW,319,12.0,17.0,90,0.00,,,0.07,,2013-02-27 10:42:00,
2013-02-27 04:52:00,28.0,25.0,29.67,NNE,30,8.0,16.0,90,0.00,,,0.07,,2013-02-27 10:52:00,
2013-02-27 05:02:00,28.0,26.0,29.67,North,355,7.0,15.0,91,0.00,,,0.07,,2013-02-27 11:02:00,
2013-02-27 05:12:00,28.0,26.0,29.67,North,355,7.0,15.0,91,0.00,,,0.07,,2013-02-27 11:12:00,
2013-02-27 05:22:00,28.0,26.0,29.67,North,355,8.0,16.0,91,0.00,,,0.07,,2013-02-27 11:22:00,
2013-02-27 05:32:00,28.0,26.0,29.67,North,355,8.0,16.0,91,0.00,,,0.07,,2013-02-27 11:32:00,
2013-02-27 05:41:00,28.0,26.0,29.67,North,355,8.0,16.0,91,0.00,,,0.07,,2013-02-27 11:41:00,
2013-02-27 05:52:00,28.0,26.0,29.67,North,360,6.0,16.0,91,0.00,,,0.07,,2013-02-27 11:52:00,
2013-02-27 06:02:00,28.0,25.0,29.67,NNW,342,6.0,19.0,90,0.01,,,0.08,,2013-02-27 12:02:00,
2013-02-27 06:12:00,28.0,25.0,29.67,NNW,342,6.0,19.0,90,0.01,,,0.08,,2013-02-27 12:12:00,
2013-02-27 06:22:00,28.0,25.0,29.67,NW,325,7.0,16.0,90,0.01,,,0.08,,2013-02-27 12:22:00,
2013-02-27 06:32:00,28.0,25.0,29.67,North,5,4.0,16.0,90,0.01,,,0.08,,2013-02-27 12:32:00,
2013-02-27 06:42:00,28.0,25.0,29.67,North,5,4.0,16.0,90,0.01,,,0.08,,2013-02-27 12:42:00,
2013-02-27 06:52:00,29.0,26.0,29.67,NNW,342,11.0,19.0,90,0.01,,,0.08,,2013-02-27 12:52:00,
2013-02-27 07:02:00,29.0,26.0,29.67,NNW,338,6.0,17.0,90,0.00,,,0.08,,2013-02-27 13:02:00,
2013-02-27 07:11:00,29.0,26.0,29.67,NNW,338,6.0,17.0,90,0.00,,,0.08,,2013-02-27 13:11:00,
2013-02-27 07:22:00,29.0,26.0,29.68,NNW,345,4.0,22.0,90,0.00,,,0.08,,2013-02-27 13:22:00,
2013-02-27 07:32:00,29.0,26.0,29.69,NNE,22,5.0,18.0,90,0.00,,,0.08,,2013-02-27 13:32:00,
2013-02-27 07:42:00,29.0,26.0,29.69,NNE,22,5.0,18.0,90,0.00,,,0.08,,2013-02-27 13:42:00,
2013-02-27 07:52:00,29.0,26.0,29.69,NNE,22,14.0,15.0,90,0.00,,,0.08,,2013-02-27 13:52:00,
2013-02-27 08:02:00,29.0,26.0,29.69,North,355,7.0,18.0,89,0.00,,,0.08,,2013-02-27 14:02:00,
2013-02-27 08:12:00,29.0,26.0,29.69,North,355,7.0,18.0,89,0.00,,,0.08,,2013-02-27 14:12:00,
2013-02-27 08:21:00,29.0,26.0,29.69,North,350,7.0,19.0,89,0.00,,,0.08,,2013-02-27 14:21:00,
2013-02-27 08:32:00,29.0,26.0,29.69,North,360,9.0,18.0,89,0.00,,,0.08,,2013-02-27 14:32:00,
2013-02-27 08:42:00,29.0,26.0,29.69,North,360,9.0,18.0,89,0.00,,,0.08,,2013-02-27 14:42:00,
2013-02-27 08:52:00,29.0,26.0,29.69,North,5,13.0,17.0,90,0.00,,,0.08,,2013-02-27 14:52:00,
2013-02-27 09:02:00,29.0,26.0,29.70,NNE,16,8.0,16.0,90,0.00,,,0.08,,2013-02-27 15:02:00,
2013-02-27 09:12:00,29.0,26.0,29.70,NNE,16,8.0,16.0,90,0.00,,,0.08,,2013-02-27 15:12:00,
2013-02-27 09:22:00,30.0,27.0,29.69,North,360,6.0,16.0,90,0.00,,,0.08,,2013-02-27 15:22:00,
2013-02-27 09:32:00,30.0,27.0,29.69,NNE,22,9.0,16.0,90,0.00,,,0.08,,2013-02-27 15:32:00,
2013-02-27 09:42:00,30.0,27.0,29.69,NNE,22,9.0,16.0,90,0.00,,,0.08,,2013-02-27 15:42:00,
2013-02-27 09:52:00,30.0,27.0,29.68,North,360,8.0,15.0,90,0.01,,,0.09,,2013-02-27 15:52:00,
2013-02-27 10:02:00,30.0,27.0,29.68,North,349,11.0,18.0,90,0.01,,,0.09,,2013-02-27 16:02:00,
2013-02-27 10:12:00,30.0,27.0,29.68,North,349,11.0,18.0,90,0.01,,,0.09,,2013-02-27 16:12:00,
2013-02-27 10:22:00,31.0,28.0,29.68,North,10,9.0,15.0,89,0.01,,,0.09,,2013-02-27 16:22:00,
2013-02-27 10:32:00,31.0,28.0,29.68,NNE,12,12.0,15.0,90,0.01,,,0.09,,2013-02-27 16:32:00,
2013-02-27 10:42:00,31.0,28.0,29.68,NNE,12,12.0,15.0,90,0.01,,,0.09,,2013-02-27 16:42:00,
2013-02-27 10:52:00,31.0,28.0,29.68,North,350,8.0,14.0,89,0.00,,,0.09,,2013-02-27 16:52:00,
2013-02-27 11:02:00,31.0,28.0,29.68,NNE,28,10.0,17.0,90,0.00,,,0.09,,2013-02-27 17:02:00,
2013-02-27 11:11:00,31.0,28.0,29.68,NNE,28,10.0,17.0,90,0.00,,,0.09,,2013-02-27 17:11:00,
2013-02-27 11:21:00,31.0,28.0,29.68,North,9,9.0,14.0,90,0.00,,,0.09,,2013-02-27 17:21:00,
2013-02-27 11:32:00,31.0,28.0,29.69,North,355,5.0,17.0,90,0.00,,,0.09,,2013-02-27 17:32:00,
2013-02-27 11:42:00,31.0,28.0,29.69,North,355,5.0,17.0,90,0.00,,,0.09,,2013-02-27 17:42:00,
2013-02-27 11:52:00,31.0,28.0,29.69,North,355,6.0,14.0,90,0.00,,,0.09,,2013-02-27 17:52:00,
2013-02-27 12:01:00,31.0,28.0,29.69,North,5,8.0,13.0,90,0.00,,,0.09,,2013-02-27 18:01:00,
2013-02-27 12:11:00,31.0,28.0,29.69,North,5,8.0,13.0,90,0.00,,,0.09,,2013-02-27 18:11:00,
2013-02-27 12:22:00,31.0,28.0,29.69,NNW,346,0.0,14.0,90,0.00,,,0.09,,2013-02-27 18:22:00,
2013-02-27 12:32:00,31.0,28.0,29.68,NNW,331,0.0,0.0,90,0.00,,,0.09,,2013-02-27 18:32:00,
2013-02-27 12:42:00,31.0,28.0,29.68,NNW,331,0.0,0.0,90,0.00,,,0.09,,2013-02-27 18:42:00,
2013-02-27 12:52:00,31.0,28.0,29.68,NNW,336,0.0,0.0,90,0.00,,,0.09,,2013-02-27 18:52:00,
2013-02-27 13:01:00,31.0,28.0,29.69,NNE,18,0.0,0.0,90,0.01,,,0.10,,2013-02-27 19:01:00,
2013-02-27 13:12:00,31.0,28.0,29.69,NNE,18,0.0,0.0,90,0.01,,,0.10,,2013-02-27 19:12:00,
2013-02-27 13:21:00,31.0,28.0,29.69,NNE,22,0.0,0.0,90,0.01,,,0.10,,2013-02-27 19:21:00,
2013-02-27 13:32:00,31.0,28.0,29.69,NNE,19,0.0,0.0,90,0.01,,,0.10,,2013-02-27 19:32:00,
2013-02-27 13:42:00,31.0,28.0,29.69,NNE,19,0.0,0.0,90,0.01,,,0.10,,2013-02-27 19:42:00,
2013-02-27 13:52:00,31.0,28.0,29.68,NNW,339,0.0,0.0,90,0.01,,,0.10,,2013-02-27 19:52:00,
2013-02-27 14:01:00,31.0,28.0,29.68,North,5,0.0,0.0,90,0.02,,,0.11,,2013-02-27 20:01:00,
2013-02-27 14:11:00,31.0,28.0,29.68,North,5,0.0,0.0,90,0.02,,,0.11,,2013-02-27 20:11:00,
2013-02-27 14:21:00,31.0,29.0,29.68,North,5,0.0,0.0,91,0.01,,,0.11,,2013-02-27 20:21:00,
2013-02-27 14:32:00,32.0,30.0,29.69,NNW,346,0.0,0.0,91,0.02,,,0.12,,2013-02-27 20:32:00,
2013-02-27 14:42:00,32.0,30.0,29.69,NNW,346,0.0,0.0,91,0.02,,,0.12,,2013-02-27 20:42:00,
2013-02-27 14:52:00,32.0,30.0,29.70,NNE,13,0.0,0.0,91,0.01,,,0.12,,2013-02-27 20:52:00,
2013-02-27 15:02:00,32.0,30.0,29.70,North,355,0.0,0.0,91,0.01,,,0.12,,2013-02-27 21:02:00,
2013-02-27 15:11:00,32.0,30.0,29.70,North,355,0.0,0.0,91,0.01,,,0.12,,2013-02-27 21:11:00,
2013-02-27 15:21:00,32.0,29.0,29.70,North,5,0.0,0.0,90,0.00,,,0.12,,2013-02-27 21:21:00,
2013-02-27 15:32:00,32.0,29.0,29.71,NNW,340,0.0,0.0,89,0.00,,,0.12,,2013-02-27 21:32:00,
2013-02-27 15:42:00,32.0,29.0,29.71,NNW,340,0.0,0.0,89,0.00,,,0.12,,2013-02-27 21:42:00,
2013-02-27 15:52:00,32.0,29.0,29.71,NW,325,0.0,0.0,89,0.00,,,0.12,,2013-02-27 21:52:00,
2013-02-27 16:01:00,32.0,29.0,29.72,North,360,0.0,0.0,89,0.00,,,0.12,,2013-02-27 22:01:00,
2013-02-27 16:11:00,32.0,29.0,29.72,North,360,0.0,0.0,89,0.00,,,0.12,,2013-02-27 22:11:00,
2013-02-27 16:21:00,32.0,29.0,29.72,NNW,328,0.0,0.0,88,0.00,,,0.12,,2013-02-27 22:21:00,
2013-02-27 16:31:00,32.0,29.0,29.72,NNE,15,0.0,0.0,88,0.00,,,0.12,,2013-02-27 22:31:00,
2013-02-27 16:42:00,32.0,29.0,29.72,NNE,15,0.0,0.0,88,0.00,,,0.12,,2013-02-27 22:42:00,
2013-02-27 16:51:00,32.0,29.0,29.73,North,355,0.0,0.0,88,0.00,,,0.12,,2013-02-27 22:51:00,
2013-02-27 17:01:00,32.0,29.0,29.74,NNW,340,0.0,0.0,88,0.00,,,0.12,,2013-02-27 23:01:00,
2013-02-27 17:11:00,32.0,29.0,29.74,NNW,340,0.0,0.0,88,0.00,,,0.12,,2013-02-27 23:11:00,
2013-02-27 17:21:00,32.0,29.0,29.74,NW,325,0.0,0.0,88,0.00,,,0.12,,2013-02-27 23:21:00,
2013-02-27 17:32:00,32.0,29.0,29.75,North,360,0.0,0.0,87,0.00,,,0.12,,2013-02-27 23:32:00,
2013-02-27 17:42:00,32.0,29.0,29.75,North,360,0.0,0.0,87,0.00,,,0.12,,2013-02-27 23:42:00,
2013-02-27 17:52:00,32.0,29.0,29.75,North,355,0.0,0.0,88,0.00,,,0.12,,2013-02-27 23:52:00,
2013-02-27 18:01:00,32.0,29.0,29.76,NNW,327,0.0,0.0,89,0.01,,,0.13,,2013-02-28 00:01:00,
2013-02-27 18:11:00,32.0,29.0,29.76,NNW,327,0.0,0.0,89,0.01,,,0.13,,2013-02-28 00:11:00,
2013-02-27 18:21:00,32.0,29.0,29.76,North,360,0.0,0.0,89,0.01,,,0.13,,2013-02-28 00:21:00,
2013-02-27 18:32:00,32.0,29.0,29.76,NW,317,0.0,0.0,90,0.01,,,0.13,,2013-02-28 00:32:00,
2013-02-27 18:42:00,32.0,29.0,29.76,NW,317,0.0,0.0,90,0.01,,,0.13,,2013-02-28 00:42:00,
2013-02-27 18:51:00,32.0,29.0,29.77,North,355,0.0,0.0,90,0.01,,,0.13,,2013-02-28 00:51:00,
2013-02-27 19:01:00,32.0,29.0,29.77,NNW,347,0.0,0.0,90,0.00,,,0.13,,2013-02-28 01:01:00,
2013-02-27 19:11:00,32.0,29.0,29.77,NNW,347,0.0,0.0,90,0.00,,,0.13,,2013-02-28 01:11:00,
2013-02-27 19:21:00,32.0,30.0,29.77,NNW,330,0.0,0.0,91,0.00,,,0.13,,2013-02-28 01:21:00,
2013-02-27 19:32:00,31.0,29.0,29.78,NW,322,4.0,9.0,91,0.00,,,0.13,,2013-02-28 01:32:00,
2013-02-27 19:41:00,31.0,29.0,29.78,NW,322,4.0,9.0,91,0.00,,,0.13,,2013-02-28 01:41:00,
2013-02-27 19:52:00,31.0,29.0,29.78,NNW,331,9.0,9.0,91,0.00,,,0.12,,2013-02-28 01:52:00,
2013-02-27 20:01:00,32.0,30.0,29.78,NNW,348,6.0,12.0,91,0.00,,,0.12,,2013-02-28 02:01:00,
2013-02-27 20:11:00,32.0,30.0,29.78,NNW,348,6.0,12.0,91,0.00,,,0.12,,2013-02-28 02:11:00,
2013-02-27 20:22:00,32.0,29.0,29.79,NW,325,9.0,12.0,90,0.00,,,0.12,,2013-02-28 02:22:00,
2013-02-27 20:31:00,32.0,29.0,29.79,North,355,3.0,14.0,90,0.00,,,0.11,,2013-02-28 02:31:00,
2013-02-27 20:41:00,32.0,29.0,29.79,North,355,3.0,14.0,90,0.00,,,0.11,,2013-02-28 02:41:00,
2013-02-27 20:51:00,32.0,29.0,29.79,North,355,3.0,14.0,90,0.00,,,0.11,,2013-02-28 02:51:00,
2013-02-27 21:01:00,32.0,29.0,29.79,NE,51,7.0,12.0,89,0.00,,,0.10,,2013-02-28 03:01:00,
2013-02-27 21:11:00,32.0,29.0,29.79,NE,51,7.0,12.0,89,0.00,,,0.10,,2013-02-28 03:11:00,
2013-02-27 21:21:00,32.0,29.0,29.79,NW,314,10.0,12.0,89,0.00,,,0.09,,2013-02-28 03:21:00,
2013-02-27 21:31:00,32.0,29.0,29.80,NW,313,6.0,14.0,89,0.00,,,0.09,,2013-02-28 03:31:00,
2013-02-27 21:42:00,32.0,29.0,29.80,NW,313,6.0,14.0,89,0.00,,,0.09,,2013-02-28 03:42:00,
2013-02-27 21:51:00,32.0,29.0,29.80,North,9,6.0,11.0,89,0.00,,,0.09,,2013-02-28 03:51:00,
2013-02-27 22:01:00,32.0,29.0,29.80,NNW,330,5.0,12.0,89,0.00,,,0.09,,2013-02-28 04:01:00,
2013-02-27 22:11:00,32.0,29.0,29.80,NNW,330,5.0,12.0,89,0.00,,,0.09,,2013-02-28 04:11:00,
2013-02-27 22:21:00,32.0,29.0,29.80,NW,308,4.0,12.0,88,0.00,,,0.09,,2013-02-28 04:21:00,
2013-02-27 22:32:00,32.0,29.0,29.80,North,5,8.0,11.0,88,0.00,,,0.08,,2013-02-28 04:32:00,
2013-02-27 22:42:00,32.0,29.0,29.80,North,5,8.0,11.0,88,0.00,,,0.08,,2013-02-28 04:42:00,
2013-02-27 22:51:00,32.0,29.0,29.81,NNW,338,6.0,12.0,88,0.00,,,0.08,,2013-02-28 04:51:00,
2013-02-27 23:01:00,32.0,29.0,29.81,North,350,9.0,12.0,87,0.00,,,0.08,,2013-02-28 05:01:00,
2013-02-27 23:11:00,32.0,29.0,29.81,North,350,9.0,12.0,87,0.00,,,0.08,,2013-02-28 05:11:00,
2013-02-27 23:22:00,32.0,29.0,29.81,NW,326,7.0,12.0,87,0.00,,,0.08,,2013-02-28 05:22:00,
2013-02-27 23:31:00,32.0,29.0,29.82,NNW,340,4.0,11.0,88,0.00,,,0.07,,2013-02-28 05:31:00,
2013-02-27 23:42:00,32.0,29.0,29.82,NNW,340,4.0,11.0,88,0.00,,,0.07,,2013-02-28 05:42:00,
2013-02-27 23:52:00,32.0,29.0,29.82,NW,312,8.0,12.0,88,0.00,,,0.07,,2013-02-28 05:52:00,